| time (UTC) | temp F | wind direction | speed MPH | gust MPH | rain 1hr in | rain 24hr in | rain mn in | humidity % | barometer mb |
| 20260508111550 | 52 | 28 | 0.0 | 0.0 | 0.00 | 0.00 | 0.00 | 65 | 1011.9 |
| 20260508110037 | 52 | 28 | 0.0 | 0.0 | 0.00 | 0.00 | 0.00 | 66 | 1011.8 |
| 20260508104513 | 52 | 28 | 0.0 | 0.0 | 0.00 | 0.00 | 0.00 | 66 | 1011.8 |
| 20260508103025 | 52 | 28 | 0.0 | 0.0 | 0.00 | 0.00 | 0.00 | 67 | 1011.5 |
| 20260508101626 | 52 | 28 | 0.0 | 0.0 | 0.00 | 0.00 | 0.00 | 66 | 1011.5 |
| 20260508100057 | 52 | 28 | 0.0 | 0.0 | 0.00 | 0.00 | 0.00 | 66 | 1011.4 |
| 20260508094607 | 53 | 28 | 0.0 | 0.0 | 0.00 | 0.00 | 0.00 | 66 | 1011.1 |
| 20260508093053 | 53 | 28 | 0.0 | 0.0 | 0.00 | 0.00 | 0.00 | 65 | 1011.1 |
| 20260508091550 | 54 | 28 | 0.0 | 0.0 | 0.00 | 0.00 | 0.00 | 63 | 1011.0 |
| 20260508090059 | 54 | 28 | 0.0 | 0.0 | 0.00 | 0.00 | 0.00 | 61 | 1010.9 |
| 20260508084545 | 55 | 28 | 0.0 | 0.0 | 0.00 | 0.00 | 0.00 | 59 | 1010.9 |
| 20260508083057 | 55 | 28 | 0.0 | 0.0 | 0.00 | 0.00 | 0.00 | 58 | 1010.9 |
| 20260508081524 | 56 | 28 | 0.0 | 0.0 | 0.00 | 0.00 | 0.00 | 56 | 1010.8 |
| 20260508080022 | 56 | 28 | 0.0 | 0.0 | 0.00 | 0.00 | 0.00 | 55 | 1010.7 |
| 20260508074501 | 57 | 28 | 0.0 | 0.0 | 0.00 | 0.00 | 0.00 | 53 | 1010.6 |
| 20260508073059 | 58 | 28 | 0.0 | 0.0 | 0.00 | 0.00 | 0.00 | 51 | 1010.6 |
| 20260508071544 | 59 | 28 | 0.0 | 0.0 | 0.00 | 0.00 | 0.00 | 49 | 1010.4 |
| 20260508070039 | 60 | 28 | 0.0 | 0.0 | 0.00 | 0.00 | 0.00 | 47 | 1010.4 |
| 20260508064547 | 61 | 28 | 0.0 | 0.0 | 0.00 | 0.00 | 0.00 | 45 | 1010.3 |
| 20260508063035 | 61 | 28 | 0.0 | 0.0 | 0.00 | 0.00 | 0.00 | 43 | 1010.2 |
| 20260508061536 | 61 | 28 | 0.0 | 0.0 | 0.00 | 0.00 | 0.00 | 43 | 1010.1 |
| 20260508060033 | 61 | 28 | 0.0 | 0.0 | 0.00 | 0.00 | 0.00 | 43 | 1010.1 |
| 20260508054534 | 62 | 28 | 0.0 | 0.0 | 0.00 | 0.00 | 0.00 | 43 | 1010.0 |
| 20260508053034 | 62 | 28 | 0.0 | 0.0 | 0.00 | 0.00 | 0.00 | 44 | 1009.8 |
| 20260508051516 | 63 | 28 | 0.0 | 0.0 | 0.00 | 0.00 | 0.00 | 42 | 1009.9 |
| 20260508050020 | 63 | 28 | 0.0 | 0.0 | 0.00 | 0.00 | 0.00 | 41 | 1009.8 |
| 20260508044511 | 64 | 28 | 0.0 | 0.0 | 0.00 | 0.00 | 0.00 | 41 | 1009.8 |
| 20260508043009 | 65 | 28 | 0.0 | 0.0 | 0.00 | 0.00 | 0.00 | 39 | 1009.8 |
| 20260508041504 | 66 | 28 | 0.0 | 0.0 | 0.00 | 0.00 | 0.00 | 36 | 1009.7 |
| 20260508040001 | 67 | 28 | 0.0 | 0.0 | 0.00 | 0.00 | 0.00 | 35 | 1009.7 |
| 20260508034603 | 68 | 28 | 0.0 | 0.0 | 0.00 | 0.00 | 0.00 | 33 | 1009.5 |
| 20260508033055 | 70 | 28 | 0.0 | 0.0 | 0.00 | 0.00 | 0.00 | 32 | 1009.3 |
| 20260508031539 | 71 | 28 | 0.0 | 0.0 | 0.00 | 0.00 | 0.00 | 32 | 1009.0 |
| 20260508030036 | 72 | 28 | 0.0 | 0.0 | 0.00 | 0.00 | 0.00 | 30 | 1008.9 |
| 20260508024543 | 73 | 28 | 0.0 | 0.0 | 0.00 | 0.00 | 0.00 | 28 | 1008.7 |
| 20260508023031 | 73 | 28 | 0.0 | 0.0 | 0.00 | 0.00 | 0.00 | 28 | 1008.5 |
| 20260508021528 | 74 | 28 | 2.0 | 0.0 | 0.00 | 0.00 | 0.00 | 26 | 1008.5 |
| 20260508020025 | 75 | 36 | 3.0 | 0.0 | 0.00 | 0.00 | 0.00 | 26 | 1008.5 |
| 20260508014541 | 76 | 34 | 3.0 | 0.0 | 0.00 | 0.00 | 0.00 | 26 | 1008.5 |
| 20260508013021 | 76 | 51 | 3.0 | 0.0 | 0.00 | 0.00 | 0.00 | 26 | 1008.5 |
| 20260508011503 | 76 | 36 | 3.0 | 0.0 | 0.00 | 0.00 | 0.00 | 27 | 1008.5 |
| 20260508010002 | 77 | 29 | 3.0 | 0.0 | 0.00 | 0.00 | 0.00 | 27 | 1008.4 |
| 20260508004543 | 77 | 30 | 4.0 | 0.0 | 0.00 | 0.00 | 0.00 | 27 | 1008.6 |
| 20260508003057 | 77 | 346 | 4.0 | 0.0 | 0.00 | 0.00 | 0.00 | 26 | 1008.7 |
| 20260508001523 | 77 | 34 | 4.0 | 0.0 | 0.00 | 0.00 | 0.00 | 27 | 1008.7 |
| 20260508000022 | 77 | 335 | 5.0 | 0.0 | 0.00 | 0.00 | 0.00 | 27 | 1008.7 |
| 20260507234510 | 77 | 30 | 4.0 | 0.0 | 0.00 | 0.00 | 0.00 | 27 | 1008.7 |
| 20260507233007 | 77 | 53 | 4.0 | 0.0 | 0.00 | 0.00 | 0.00 | 27 | 1008.9 |
| 20260507231505 | 77 | 29 | 4.0 | 0.0 | 0.00 | 0.00 | 0.00 | 27 | 1009.0 |
| 20260507230008 | 77 | 40 | 5.0 | 0.0 | 0.00 | 0.00 | 0.00 | 28 | 1009.2 |
| 20260507224506 | 77 | 350 | 5.0 | 0.0 | 0.00 | 0.00 | 0.00 | 28 | 1009.2 |
| 20260507223002 | 78 | 30 | 4.0 | 0.0 | 0.00 | 0.00 | 0.00 | 28 | 1009.4 |
| 20260507221601 | 78 | 346 | 4.0 | 0.0 | 0.00 | 0.00 | 0.00 | 28 | 1009.7 |
| 20260507220101 | 78 | 342 | 3.0 | 0.0 | 0.00 | 0.00 | 0.00 | 27 | 1009.8 |
| 20260507214603 | 78 | 294 | 4.0 | 0.0 | 0.00 | 0.00 | 0.00 | 29 | 1010.0 |
| 20260507213040 | 78 | 360 | 3.0 | 0.0 | 0.00 | 0.00 | 0.00 | 29 | 1010.2 |
| 20260507211546 | 78 | 271 | 3.0 | 0.0 | 0.00 | 0.00 | 0.00 | 28 | 1010.4 |
| 20260507210020 | 77 | 288 | 4.0 | 0.0 | 0.00 | 0.00 | 0.00 | 31 | 1010.6 |
| 20260507204519 | 77 | 255 | 3.0 | 0.0 | 0.00 | 0.00 | 0.00 | 29 | 1010.8 |
| 20260507203019 | 76 | 327 | 0.0 | 0.0 | 0.00 | 0.00 | 0.00 | 30 | 1010.9 |
| 20260507201520 | 76 | 333 | 2.0 | 0.0 | 0.00 | 0.00 | 0.00 | 30 | 1011.1 |
| 20260507200018 | 76 | 264 | 0.0 | 0.0 | 0.00 | 0.00 | 0.00 | 31 | 1011.3 |
| 20260507194517 | 75 | 46 | 0.0 | 0.0 | 0.00 | 0.00 | 0.00 | 31 | 1011.4 |
| 20260507193017 | 74 | 47 | 0.0 | 0.0 | 0.00 | 0.00 | 0.00 | 30 | 1011.6 |
| 20260507191518 | 74 | 344 | 1.0 | 0.0 | 0.00 | 0.00 | 0.00 | 30 | 1011.8 |
| 20260507190059 | 74 | 343 | 3.0 | 0.0 | 0.00 | 0.00 | 0.00 | 31 | 1011.9 |
| 20260507184558 | 72 | 339 | 3.0 | 0.0 | 0.00 | 0.00 | 0.00 | 34 | 1012.0 |
| 20260507183041 | 71 | 339 | 4.0 | 0.0 | 0.00 | 0.00 | 0.00 | 36 | 1012.3 |
| 20260507181540 | 72 | 340 | 3.0 | 0.0 | 0.00 | 0.00 | 0.00 | 34 | 1012.5 |
| 20260507180028 | 71 | 338 | 2.0 | 0.0 | 0.00 | 0.00 | 0.00 | 36 | 1012.6 |
| 20260507174528 | 72 | 312 | 0.0 | 0.0 | 0.00 | 0.00 | 0.00 | 33 | 1012.7 |
| 20260507173030 | 72 | 338 | 0.0 | 0.0 | 0.00 | 0.00 | 0.00 | 34 | 1012.7 |
| 20260507171527 | 72 | 324 | 0.0 | 0.0 | 0.00 | 0.00 | 0.00 | 34 | 1012.9 |
| 20260507170026 | 70 | 325 | 0.0 | 0.0 | 0.00 | 0.00 | 0.00 | 36 | 1013.0 |
| 20260507164527 | 70 | 342 | 0.0 | 0.0 | 0.00 | 0.00 | 0.00 | 40 | 1013.0 |
| 20260507163026 | 69 | 342 | 0.0 | 0.0 | 0.00 | 0.00 | 0.00 | 41 | 1013.1 |
| 20260507161525 | 69 | 342 | 0.0 | 0.0 | 0.00 | 0.00 | 0.00 | 41 | 1013.2 |
| 20260507160007 | 68 | 342 | 0.0 | 0.0 | 0.00 | 0.00 | 0.00 | 43 | 1013.2 |
| 20260507154507 | 67 | 342 | 0.0 | 0.0 | 0.00 | 0.00 | 0.00 | 43 | 1013.3 |
| 20260507153053 | 66 | 342 | 0.0 | 0.0 | 0.00 | 0.00 | 0.00 | 44 | 1013.4 |
| 20260507151549 | 64 | 342 | 0.0 | 0.0 | 0.00 | 0.00 | 0.00 | 49 | 1013.5 |
| 20260507150030 | 63 | 342 | 0.0 | 0.0 | 0.00 | 0.00 | 0.00 | 48 | 1013.5 |
| 20260507144534 | 62 | 17 | 0.0 | 0.0 | 0.00 | 0.00 | 0.00 | 52 | 1013.4 |
| 20260507143012 | 59 | 17 | 0.0 | 0.0 | 0.00 | 0.00 | 0.00 | 56 | 1013.3 |
| 20260507141512 | 57 | 17 | 0.0 | 0.0 | 0.00 | 0.00 | 0.00 | 60 | 1013.2 |
| 20260507140108 | 56 | 17 | 0.0 | 0.0 | 0.00 | 0.00 | 0.00 | 62 | 1013.1 |
| 20260507134554 | 55 | 16 | 0.0 | 0.0 | 0.00 | 0.00 | 0.00 | 63 | 1012.9 |
| 20260507133035 | 55 | 16 | 0.0 | 0.0 | 0.00 | 0.00 | 0.00 | 63 | 1012.8 |
| 20260507131542 | 55 | 15 | 0.0 | 0.0 | 0.00 | 0.00 | 0.00 | 62 | 1012.7 |
| 20260507130017 | 55 | 15 | 0.0 | 0.0 | 0.00 | 0.00 | 0.00 | 62 | 1012.6 |
| 20260507124519 | 55 | 16 | 0.0 | 0.0 | 0.00 | 0.00 | 0.00 | 62 | 1012.6 |
| 20260507123004 | 54 | 15 | 0.0 | 0.0 | 0.00 | 0.00 | 0.00 | 61 | 1012.5 |
| 20260507121503 | 55 | 16 | 0.0 | 0.0 | 0.00 | 0.00 | 0.00 | 63 | 1012.4 |
| 20260507120001 | 55 | 15 | 0.0 | 0.0 | 0.00 | 0.00 | 0.00 | 64 | 1012.3 |
| 20260507114600 | 56 | 15 | 0.0 | 0.0 | 0.00 | 0.00 | 0.00 | 64 | 1012.3 |
| 20260507113058 | 56 | 15 | 0.0 | 0.0 | 0.00 | 0.00 | 0.00 | 64 | 1012.3 |